Location: Góry Miechowskie
(50.3599°N, 20.1803°E)
Time: 14:08:22
(UTC+00:00)

A-11 Canister half - Pass Details

Date: 15 September 2024
Orbit: 1515 x 1684 km, 47.2° (Epoch: 11 October)

Event Time Altitude Azimuth Distance (km) Brightness Sun altitude
Rises 18:27:23 0° 244° (WSW) 4,715 12.2 -15.5°
Reaches altitude 10° 18:30:29 10° 241° (WSW) 3,715 11.5 -15.9°
Maximum altitude 18:39:40 65° 163° (SSE) 1,648 8.9 -17.2°
Enters shadow 18:46:39 19° 87° (E) 3,026 10.0 -18.2°
